TimeAST,TemperatureF,Dew PointF,Humidity,Sea Level PressureIn,VisibilityMPH,Wind Direction,Wind SpeedMPH,Gust SpeedMPH,PrecipitationIn,Events,Conditions,WindDirDegrees,DateUTC
2:00 AM,73.4,71.6,94,30.06,6.2,Calm,Calm,-,N/A,,Scattered Clouds,0,2013-01-01 06:00:00
5:00 AM,71.6,69.8,94,30.01,6.2,Calm,Calm,-,N/A,,Scattered Clouds,0,2013-01-01 09:00:00
8:00 AM,72,71,96,30.07,4,Calm,Calm,,,Rain,Light Rain,,2013-01-01 12:00:00
8:00 AM,71.6,71.6,100,30.06,3.7,Calm,Calm,-,N/A,Rain,Light Rain,0,2013-01-01 12:00:00
9:00 AM,71.6,71.6,100,30.06,3.7,Calm,Calm,-,N/A,Rain,Light Rain,0,2013-01-01 13:00:00
10:00 AM,75.2,69.8,83,30.06,6.2,Calm,Calm,-,N/A,,Mostly Cloudy,0,2013-01-01 14:00:00
11:00 AM,82,75,73,30.06,10,ESE,8.9,,,,Scattered Clouds,120,2013-01-01 15:00:00
11:00 AM,78.8,73.4,83,30.09,6.2,ESE,5.8,-,N/A,,Scattered Clouds,120,2013-01-01 15:00:00
12:00 PM,80.6,73.4,79,30.09,6.2,East,13.8,-,N/A,,Mostly Cloudy,100,2013-01-01 16:00:00
1:00 PM,82.4,73.4,74,30.06,6.2,East,13.8,-,N/A,,Scattered Clouds,90,2013-01-01 17:00:00
2:00 PM,80.6,73.4,79,30.04,6.2,East,11.5,-,N/A,,Mostly Cloudy,80,2013-01-01 18:00:00
3:00 PM,77.0,73.4,89,29.98,3.1,ENE,5.8,-,N/A,Rain,Light Rain,60,2013-01-01 19:00:00
4:00 PM,78.8,73.4,83,30.01,5.0,East,11.5,-,N/A,Rain,Light Rain,90,2013-01-01 20:00:00
4:02 PM,-9999,-9999,N/A,30.01,6.2,East,11.5,-,N/A,,Scattered Clouds,90,2013-01-01 20:02:00
5:00 PM,77.0,73.4,89,30.01,6.2,East,11.5,-,N/A,,Scattered Clouds,90,2013-01-01 21:00:00
6:00 PM,77.0,71.6,83,30.01,6.2,East,11.5,-,N/A,,Scattered Clouds,90,2013-01-01 22:00:00
7:00 PM,75.2,71.6,89,30.01,6.2,East,9.2,-,N/A,,Scattered Clouds,100,2013-01-01 23:00:00
8:00 PM,74,71,88,30.03,10,Calm,Calm,,,,Haze,,2013-01-02 00:00:00
8:00 PM,73.4,71.6,94,30.01,6.2,Calm,Calm,-,N/A,,Scattered Clouds,0,2013-01-02 00:00:00
11:00 PM,73,71,92,30.05,10,Calm,Calm,,,,Scattered Clouds,,2013-01-02 03:00:00
11:00 PM,73.4,71.6,94,30.04,6.2,Calm,Calm,-,N/A,,Partly Cloudy,0,2013-01-02 03:00:00